GEFSMW_500_meanwind_294.txt.gz
Wind_Speed
11 11 11 11 11 11 11 10 10 10 10 11 11 11 11 12 12 11 10 10 10 10 10 10 10 10 11 11 11 12 12 12 11 11 10 10 10 11 10 11 10 10 10
10 11 11 12 12 12 12 11 10 10 11 11 11 11 12 12 12 12 12 11 10 10 10 11 11 11 11 12 11 11 12 12 12 11 11 10 10 10 10 10 10 10 10
10 10 11 11 12 12 12 11 11 11 11 10 10 11 12 13 13 13 12 12 11 11 11 11 11 11 11 11 11 11 11 12 12 12 12 12 11 11 10 10 10 10 11
11 11 11 11 12 12 11 12 12 12 12 11 11 12 12 13 13 13 12 12 12 11 11 11 11 11 11 10 10 11 11 12 12 12 12 12 12 12 11 11 11 11 11
12 12 12 12 12 12 12 13 13 13 13 12 12 12 12 13 13 12 12 12 12 12 12 12 12 11 11 11 10 11 11 11 11 11 12 12 12 12 12 12 11 11 11
13 12 12 12 13 13 13 13 13 14 14 14 13 13 13 13 13 13 13 13 13 13 12 12 13 12 12 11 11 11 12 12 12 12 12 12 12 12 12 12 12 12 12
12 12 13 13 13 13 13 13 14 14 15 15 14 14 14 14 14 13 13 13 13 13 13 13 13 13 12 12 12 12 12 12 12 12 12 12 12 12 12 12 12 13 12
12 13 13 13 13 14 14 14 15 15 15 15 15 14 14 14 14 13 13 13 13 13 13 13 14 13 13 13 13 13 12 13 13 13 13 13 13 14 14 13 13 14 14
12 13 13 13 13 14 14 15 15 16 16 15 16 15 16 16 15 14 14 13 14 15 15 15 15 14 14 14 14 14 14 14 14 14 14 14 14 15 15 15 15 15 15
13 13 13 13 13 14 15 15 16 16 16 16 16 16 16 16 16 16 16 15 15 15 15 14 15 15 15 15 15 15 15 15 15 15 15 15 15 15 16 16 16 16 16
14 14 14 14 14 14 15 15 16 16 16 17 17 17 17 16 17 17 18 17 17 16 16 16 16 16 16 17 17 17 17 17 17 16 16 16 17 17 17 16 17 17 17
15 15 16 16 15 15 15 15 16 16 16 17 17 17 18 18 18 19 19 18 18 18 18 18 18 18 19 19 19 19 18 18 18 18 18 18 18 18 18 18 18 17 17
16 17 17 17 17 16 16 16 16 16 17 18 18 19 19 19 19 20 20 20 19 19 19 19 20 21 20 20 20 20 20 20 20 20 19 19 18 19 19 19 19 19 19
18 17 17 18 18 18 17 17 17 18 18 19 19 20 20 20 20 20 20 20 20 21 21 22 22 23 22 21 21 21 22 22 22 22 22 21 21 20 19 19 20 20 20
18 17 17 18 18 19 19 19 19 20 20 20 20 20 20 20 20 20 20 20 21 22 22 23 23 23 23 23 23 23 22 23 23 23 23 23 22 22 21 21 21 22 22
19 18 18 19 18 19 19 19 20 20 20 20 20 21 21 21 21 21 22 22 22 23 23 23 24 24 24 24 24 24 24 24 24 24 25 24 25 24 24 24 24 24 24
19 19 19 20 20 19 19 20 21 21 21 21 22 22 23 22 22 22 22 23 23 24 25 25 24 24 24 24 25 26 26 26 26 26 26 26 26 27 26 26 26 25 25
21 21 21 21 21 21 21 21 21 21 22 22 23 24 24 23 23 24 23 24 24 25 25 25 25 25 25 25 26 27 27 27 27 27 27 27 27 28 28 28 27 27 27
22 22 22 22 22 22 22 22 21 22 22 23 23 24 24 24 24 24 24 24 24 25 25 26 26 27 27 27 27 27 27 27 27 27 28 28 28 28 29 30 29 29 29
22 23 23 23 23 23 23 23 23 23 23 23 23 24 24 24 25 25 25 25 25 25 26 26 27 27 28 28 27 27 28 28 28 28 29 29 29 29 29 30 30 29 30
23 24 23 24 24 25 24 24 24 25 25 25 24 25 25 25 26 26 26 26 26 26 26 26 27 27 28 28 29 28 29 29 29 29 30 30 30 30 30 31 31 31 31
24 24 25 25 25 25 25 25 26 26 26 27 27 27 27 27 27 27 27 27 27 27 27 27 27 27 28 29 29 29 29 29 29 30 31 31 31 31 31 31 31 32 32
24 25 25 25 25 26 26 26 27 27 27 27 28 29 29 29 29 28 28 28 28 28 28 28 27 27 27 28 29 30 30 30 30 30 30 31 31 31 31 31 30 31 32
25 25 25 25 25 26 26 26 27 27 27 27 28 28 29 29 29 29 29 29 29 28 29 29 28 28 28 28 28 29 28 28 29 29 30 30 31 32 32 32 32 32 32
26 26 25 25 25 25 26 27 27 27 27 27 28 28 28 29 28 29 29 29 29 29 29 29 29 29 29 29 29 29 27 27 28 28 29 30 30 31 31 33 33 32 32
25 26 26 26 26 26 27 28 28 28 28 28 28 29 29 29 29 30 30 29 29 29 29 29 30 30 30 30 30 30 30 29 28 28 28 29 29 30 30 31 32 32 33

GEFSMW_500_meanwind_300.txt.gz
Wind_Speed
13 13 12 12 13 12 12 12 12 11 11 12 12 13 13 13 13 13 13 13 13 13 13 12 12 11 11 12 12 12 12 12 12 12 12 11 11 11 11 11 11 11 11
12 12 12 12 12 12 12 12 12 12 12 12 13 13 13 13 13 14 14 14 14 14 14 13 12 12 12 12 12 12 13 13 13 13 13 13 12 12 12 12 12 12 11
12 12 12 12 13 13 13 12 12 12 13 13 13 13 13 13 13 13 13 14 14 14 13 13 13 13 13 12 12 13 13 13 13 13 13 13 13 13 13 13 13 13 12
12 12 13 13 13 13 14 13 14 14 14 14 14 14 14 13 13 13 14 14 14 15 15 15 15 15 14 14 13 13 13 13 13 13 13 13 13 13 13 13 13 13 13
12 13 13 14 14 14 14 14 15 15 15 16 15 15 15 14 14 14 14 14 14 15 15 15 15 15 15 15 14 14 14 13 13 14 14 14 14 14 14 14 13 14 14
13 13 14 14 15 15 15 15 16 16 16 15 15 15 15 15 15 15 15 15 15 15 15 15 15 15 16 15 14 15 14 14 14 14 14 14 14 14 14 14 14 14 14
12 13 14 14 15 15 16 16 17 17 17 17 16 16 16 16 15 15 15 15 15 15 15 15 15 15 15 15 15 16 16 15 15 15 14 14 14 14 14 14 15 14 14
13 13 13 14 14 14 15 16 16 17 17 17 17 16 16 17 16 15 16 16 16 16 15 15 15 16 16 16 16 16 16 16 15 15 15 15 15 15 15 15 15 15 15
13 14 14 14 15 15 15 16 16 17 17 17 16 15 16 16 16 17 17 17 16 16 16 16 15 16 16 16 16 17 16 16 15 15 16 16 16 16 16 16 16 16 15
14 14 15 16 16 16 16 17 17 17 16 16 16 16 16 16 16 16 16 17 17 17 18 18 18 17 16 16 16 16 16 16 15 15 16 16 16 16 16 16 17 17 17
15 15 16 17 17 17 17 17 18 18 17 17 17 17 16 16 16 16 17 17 18 17 18 19 19 19 18 17 17 17 17 17 17 17 17 17 17 17 17 17 17 17 17
18 17 17 17 17 17 18 18 18 18 18 18 18 18 18 17 17 17 18 18 18 18 19 19 20 20 20 20 19 19 19 19 19 19 18 18 17 18 18 18 19 19 19
18 18 18 18 18 18 18 18 18 18 19 19 19 19 19 19 19 19 19 19 20 19 20 20 20 21 21 22 22 22 20 20 20 20 20 20 20 19 19 20 20 20 20
18 18 19 19 19 18 19 19 18 19 19 20 20 20 21 20 20 20 20 21 21 21 21 22 22 22 22 23 23 23 23 23 22 22 22 22 22 22 21 21 21 21 21
20 20 20 20 20 20 20 19 19 20 20 20 20 21 21 21 21 21 21 22 22 23 23 23 23 23 23 23 23 24 24 24 24 24 24 24 24 25 24 23 23 23 22
21 21 21 21 21 21 21 21 20 20 21 21 21 21 21 21 21 21 22 22 22 23 23 23 24 24 25 25 24 25 25 25 26 26 25 26 26 27 27 26 26 26 25
21 22 21 21 21 21 21 21 21 21 21 22 22 22 22 22 22 21 21 22 22 23 23 24 24 24 25 25 25 26 26 26 27 27 27 27 27 27 27 28 28 28 27
22 22 22 22 22 22 22 22 22 21 21 22 22 22 22 23 23 22 22 22 22 22 23 24 24 24 24 25 26 26 26 27 27 27 28 28 28 28 28 29 29 29 29
21 22 22 22 23 23 24 24 24 23 23 22 22 22 22 23 24 24 24 23 23 23 23 24 23 24 24 25 26 26 27 27 27 28 28 27 27 28 28 29 30 29 29
22 22 22 23 24 24 25 24 24 24 24 24 24 23 24 24 25 25 26 26 25 25 24 24 25 25 25 25 26 27 27 28 28 28 28 29 29 29 28 29 30 30 30
23 23 23 24 24 24 24 24 24 24 24 24 25 25 25 25 26 26 26 26 26 26 26 26 26 26 26 26 27 28 28 28 28 29 29 29 29 29 29 30 30 31 31
24 24 24 24 24 24 25 25 24 24 24 25 25 26 26 27 28 28 28 28 28 27 26 26 26 27 27 27 28 28 28 28 28 28 29 31 31 30 30 30 30 30 31
25 24 24 25 25 25 25 25 25 25 25 25 26 27 28 28 29 29 29 30 29 28 28 28 28 29 29 29 29 28 28 28 28 29 30 30 31 31 30 30 29 30 30
25 25 25 25 25 25 25 25 26 26 26 26 26 27 29 29 30 29 30 30 30 30 30 30 30 31 31 31 31 30 29 29 29 29 30 30 30 31 30 31 31 31 31
25 25 25 25 25 25 26 26 27 27 28 28 29 29 30 30 30 31 31 31 31 31 31 32 32 32 33 33 33 32 32 31 31 30 30 30 30 31 31 31 31 32 32
25 25 26 26 26 26 27 28 28 29 29 30 30 30 30 31 31 32 32 33 33 33 33 33 33 33 33 33 34 33 33 33 32 32 31 31 31 31 32 32 32 32 32

GEFSMW_500_meanwind_306.txt.gz
Wind_Speed
14 14 13 13 13 13 13 13 13 12 13 13 13 13 13 15 15 15 16 16 16 15 15 15 15 14 14 14 14 14 14 14 14 15 15 14 14 13 13 13 13 12 12
14 14 14 14 14 14 14 13 13 13 14 14 14 13 14 15 15 16 16 16 16 15 15 15 16 16 16 15 15 16 16 16 15 15 15 14 14 14 14 13 12 12 12
14 14 14 13 13 14 14 13 13 14 14 14 14 15 15 15 16 16 16 16 15 15 15 15 15 16 17 17 17 17 17 16 16 15 15 14 14 14 14 14 13 13 12
12 13 12 13 13 13 13 13 14 14 14 15 15 16 16 16 16 16 16 16 16 15 15 15 15 16 17 18 17 17 17 17 16 16 16 16 15 14 14 14 14 13 13
11 11 12 12 13 13 13 14 15 15 16 16 16 17 17 17 17 17 17 17 17 16 16 16 16 17 18 18 18 17 17 17 16 16 16 16 15 15 15 15 15 15 14
11 11 12 12 13 13 14 14 15 15 16 16 17 17 17 17 17 17 18 18 18 17 17 17 18 17 18 18 18 18 18 17 17 17 17 16 16 16 16 16 16 16 15
12 12 13 13 13 14 14 14 14 15 16 16 16 17 18 18 17 18 18 19 19 18 17 18 18 18 18 18 18 18 18 18 17 17 17 17 17 16 16 17 17 17 17
13 13 13 13 14 14 14 15 15 15 16 16 16 17 18 18 18 18 19 19 19 18 18 18 19 19 19 18 18 19 19 19 18 18 17 17 17 17 17 17 18 18 18
14 14 13 14 14 14 15 15 16 16 17 17 17 18 18 18 18 19 19 19 19 18 19 19 20 20 19 18 18 18 19 19 19 18 18 18 18 18 18 18 18 19 19
13 14 14 14 14 15 16 16 16 17 17 18 18 18 18 19 19 18 18 18 18 18 19 19 19 19 19 19 19 19 19 19 19 19 18 19 18 18 18 18 18 18 18
14 15 16 15 15 15 16 16 17 17 17 18 18 18 19 19 19 18 18 18 17 17 18 18 19 19 19 19 19 20 20 19 19 20 20 20 19 19 19 19 19 19 19
15 15 16 16 17 16 16 16 17 18 18 19 19 19 19 19 19 19 18 18 18 17 18 19 19 19 20 20 20 21 21 20 20 20 21 21 21 20 20 19 19 20 20
16 16 17 18 18 18 18 18 19 19 19 19 19 19 19 19 19 19 19 19 18 18 19 19 19 20 20 20 20 21 21 21 21 21 21 22 22 22 21 20 20 21 21
17 18 18 19 19 20 20 20 20 20 20 20 20 19 19 19 19 19 19 19 19 18 19 19 20 20 20 20 21 22 23 22 22 22 22 22 23 23 23 22 22 22 22
19 19 19 20 21 21 21 21 21 21 21 21 21 20 20 20 20 19 20 20 19 19 19 19 20 20 20 21 22 22 23 23 24 24 24 23 23 24 24 24 24 24 24
20 20 20 21 21 22 22 22 22 22 22 21 21 21 20 20 20 20 20 21 21 21 21 21 21 22 22 22 22 22 23 24 24 24 24 25 25 25 26 25 26 26 25
20 20 21 21 22 22 22 22 22 23 22 22 22 21 20 20 21 21 22 22 22 22 23 22 22 22 23 23 23 24 24 24 24 24 25 26 26 26 27 28 28 27 27
20 20 21 21 22 22 23 23 22 22 22 22 23 23 22 22 22 22 22 22 22 22 23 24 23 23 23 23 23 23 23 23 24 25 26 27 27 28 28 28 28 28 27
21 21 21 21 22 22 22 22 22 22 22 23 23 23 23 23 23 22 23 23 23 23 23 24 24 23 23 23 24 24 24 24 24 25 27 27 28 28 29 29 29 29 29
22 22 22 22 22 22 22 22 22 22 23 23 24 23 23 23 23 23 23 23 24 24 24 25 25 25 25 25 25 26 26 26 26 26 27 28 28 29 30 30 30 30 31
23 23 23 23 23 22 22 22 22 23 23 24 24 24 24 24 24 24 24 24 25 26 26 26 27 27 27 27 27 27 27 27 27 27 28 28 29 29 30 30 31 31 31
23 23 24 24 23 23 23 23 23 24 24 24 25 25 25 25 25 25 26 26 26 27 27 28 29 29 28 28 28 29 28 28 29 29 29 29 30 30 30 31 31 31 32
24 24 24 24 24 24 24 24 24 25 24 25 25 26 26 26 27 27 27 27 27 28 28 29 30 30 30 30 30 30 30 30 30 29 30 30 31 31 31 31 31 30 31
24 24 24 24 24 24 24 24 24 25 25 26 26 26 27 28 28 28 28 28 28 28 29 29 30 30 31 31 31 31 31 31 31 31 31 32 32 32 32 32 31 31 31
25 25 24 24 24 24 24 25 25 25 26 26 27 27 27 28 29 30 30 29 29 30 30 31 31 32 32 33 33 33 33 33 33 33 33 33 33 33 33 32 32 32 32
25 25 26 26 26 26 26 26 26 26 26 26 27 27 27 28 29 30 30 30 30 30 30 30 31 32 32 33 33 33 33 33 33 34 34 34 33 33 33 33 33 33 33

GEFSMW_500_meanwind_312.txt.gz
Wind_Speed
16 16 15 15 15 14 15 15 14 15 15 16 15 15 15 15 15 15 15 15 16 16 16 16 16 16 16 16 15 15 15 15 15 15 16 15 15 15 14 14 14 14 14
15 16 16 15 15 15 15 16 16 16 15 16 16 16 16 16 15 15 16 16 16 17 17 17 17 17 17 17 17 17 17 16 16 16 16 16 15 15 14 14 14 14 14
15 15 15 15 14 15 15 15 15 16 16 16 17 17 17 17 17 16 16 16 17 17 17 18 18 18 18 18 17 18 17 18 18 17 16 16 17 16 16 15 15 14 14
15 15 14 13 13 13 14 15 15 15 16 16 16 17 16 17 17 17 17 17 17 18 18 18 18 19 20 20 20 20 19 19 18 18 17 17 17 16 16 16 16 15 15
16 15 14 13 13 14 14 15 15 15 15 16 16 16 16 17 17 17 18 18 19 19 19 19 19 19 20 20 19 20 20 20 19 19 19 18 18 18 18 17 16 16 15
14 14 13 14 14 14 15 15 15 16 16 17 17 17 17 17 18 18 19 19 19 20 20 20 20 20 20 20 20 20 20 20 20 20 20 20 19 19 18 17 16 16 16
13 14 14 14 14 14 15 15 15 16 16 17 18 18 18 19 19 19 19 19 19 19 19 20 20 20 20 20 20 20 20 20 20 20 20 20 19 19 18 18 17 17 17
14 14 15 15 14 14 15 15 16 17 17 18 18 19 19 20 20 20 20 20 20 20 20 20 20 20 20 20 20 20 20 20 19 19 19 19 19 19 19 18 18 18 18
14 15 15 15 15 15 16 16 17 18 18 18 19 20 21 21 21 21 21 21 21 21 21 20 20 20 20 20 20 20 20 19 20 20 19 19 19 20 20 20 20 19 19
15 15 16 16 16 16 17 18 18 19 19 19 20 21 22 22 22 22 22 22 21 21 21 20 20 20 20 20 19 19 19 19 19 20 20 20 20 19 20 20 21 20 20
16 16 16 16 17 17 18 19 19 20 20 21 21 21 22 22 23 23 23 23 22 21 20 20 20 19 19 19 19 19 19 19 19 20 20 20 20 20 20 20 21 21 21
16 17 16 17 17 18 19 19 20 21 21 22 22 22 22 23 23 23 23 22 22 21 21 20 20 19 19 19 19 19 19 19 19 19 20 20 20 21 21 21 21 21 22
17 17 17 17 18 19 20 20 21 22 22 22 22 22 22 23 22 22 21 20 20 20 20 20 19 19 19 19 18 18 18 19 19 20 20 21 21 21 22 22 22 22 22
18 18 18 18 19 19 20 21 22 22 23 23 22 22 22 22 22 21 20 19 19 19 19 19 19 19 19 19 18 18 19 20 20 20 21 21 21 22 22 23 23 23 23
19 18 19 19 20 20 21 22 23 23 24 23 22 22 22 21 21 21 21 20 19 19 19 19 19 19 19 20 19 19 20 20 20 20 21 22 22 22 23 23 24 24 24
20 20 20 21 21 22 22 22 23 23 24 23 23 22 21 21 21 21 21 20 20 20 20 20 20 20 20 21 21 21 21 21 21 21 22 22 22 23 23 24 24 25 25
21 21 21 22 22 23 23 23 22 23 23 23 23 22 22 22 22 22 22 21 21 21 20 21 21 21 21 22 22 22 23 23 23 23 23 23 23 24 25 25 25 25 26
23 23 23 23 23 23 23 23 23 23 23 23 23 23 22 22 22 22 22 22 22 22 22 22 23 23 22 23 23 23 24 24 24 24 24 25 25 26 26 26 27 27 27
24 24 24 24 24 24 24 24 24 24 24 23 23 23 23 23 23 23 23 23 23 24 24 25 24 25 24 24 24 24 24 25 26 26 26 26 26 27 27 27 27 27 28
24 24 25 25 25 25 25 25 24 24 23 24 24 24 23 23 24 24 24 24 25 25 25 25 25 25 25 25 26 26 25 25 26 27 28 28 29 29 29 29 29 29 29
25 25 25 25 25 26 25 25 24 24 24 24 24 25 25 25 24 25 25 26 26 26 26 26 26 26 26 27 27 28 28 28 28 28 28 29 30 30 30 30 31 30 30
25 25 25 26 25 25 25 25 25 25 25 25 25 25 25 26 26 26 26 27 27 27 27 28 27 27 28 28 29 29 29 29 30 29 29 29 30 30 30 31 31 32 32
26 26 26 26 26 26 26 26 26 26 26 26 26 26 26 26 27 27 27 27 28 28 28 28 29 29 29 29 29 29 29 30 31 31 31 31 30 30 31 31 31 32 33
27 26 26 27 27 27 27 27 27 27 27 27 27 26 26 27 27 27 27 27 28 28 29 29 29 29 30 29 29 30 30 30 31 31 32 32 32 31 31 31 32 32 32
27 26 27 26 26 27 27 27 27 28 28 27 26 26 27 27 27 27 27 28 29 30 29 29 29 30 30 30 31 31 31 32 32 32 32 32 32 31 31 32 32 32 32
27 27 27 27 27 28 27 27 28 28 27 27 27 27 27 27 27 27 28 28 29 30 30 30 31 31 31 32 32 32 32 32 32 32 32 33 33 33 32 32 32 32 32

GEFSMW_500_meanwind_318.txt.gz
Wind_Speed
11 12 12 13 14 14 14 13 14 14 14 15 16 15 14 14 14 14 14 14 14 14 14 15 15 16 16 16 16 16 15 15 15 15 15 15 16 16 15 15 15 15 15
11 11 12 13 13 14 14 14 13 13 13 14 14 14 14 14 14 15 15 15 15 15 15 16 16 17 17 17 17 18 17 17 16 16 16 15 15 16 16 15 15 16 16
12 12 12 13 13 13 13 14 14 14 14 14 14 14 15 14 15 15 15 15 15 15 15 16 16 17 17 18 18 19 19 18 17 17 17 17 17 16 16 16 16 16 17
11 11 12 13 13 13 13 14 15 15 15 15 15 15 16 16 16 16 15 15 15 16 16 16 16 17 17 18 18 19 19 19 19 18 18 18 18 18 18 17 17 17 17
11 10 11 13 13 13 13 14 15 16 16 16 16 16 17 17 17 16 16 16 16 16 16 17 17 17 17 18 19 19 20 20 20 19 19 19 19 19 20 19 18 18 18
11 12 12 12 13 14 14 15 15 16 16 17 17 17 17 17 18 17 17 17 18 18 18 19 19 19 19 19 19 19 20 20 20 20 20 20 19 20 20 20 20 19 18
12 12 12 12 13 14 14 15 15 16 16 17 17 17 17 18 18 18 18 19 19 20 20 20 21 21 21 21 21 20 20 20 20 20 21 21 20 20 20 20 20 20 19
11 11 12 13 14 14 15 15 16 16 16 17 17 17 17 18 19 20 20 21 21 21 21 22 22 22 22 22 22 21 20 21 21 21 20 21 21 20 20 20 20 19 19
12 12 12 13 14 15 15 16 16 16 17 18 18 18 19 19 20 20 21 21 22 22 21 22 23 23 23 22 22 21 21 21 21 20 20 20 20 20 21 21 21 20 20
13 13 14 14 15 15 16 16 16 17 18 18 19 19 19 20 20 20 21 21 21 21 21 22 23 22 22 21 21 21 21 21 20 20 20 20 20 20 21 21 21 21 21
13 14 15 15 16 16 16 17 17 17 18 18 19 19 20 20 21 21 21 21 21 21 21 22 22 21 20 21 21 21 20 20 20 20 20 21 20 21 22 22 22 22 22
14 15 15 16 17 17 17 17 17 18 18 19 19 19 19 20 21 21 21 21 22 21 21 21 21 20 19 20 20 20 20 20 20 20 21 21 21 21 22 22 22 22 22
16 17 17 17 18 18 18 18 18 19 19 19 19 20 20 20 20 21 20 21 21 21 22 22 21 21 20 20 20 20 21 21 21 21 21 21 21 21 21 21 22 22 22
17 18 18 17 18 18 19 19 20 20 20 19 20 20 20 20 20 20 20 20 21 21 21 22 22 21 21 20 20 20 20 20 20 21 21 21 21 21 22 22 22 22 23
19 19 19 19 20 20 20 20 21 20 20 20 20 20 20 20 20 20 20 21 21 21 21 21 21 21 21 22 21 20 20 20 20 21 22 22 22 21 22 23 23 23 23
20 21 21 21 21 21 21 21 21 22 22 21 21 21 21 20 21 21 21 22 21 21 21 21 21 21 21 21 21 21 21 21 22 22 22 23 23 23 24 24 24 24 24
22 23 23 23 23 23 22 22 22 22 22 22 22 22 22 22 23 23 23 22 22 22 22 21 21 21 21 22 22 22 22 23 23 24 24 24 24 25 26 26 25 25 25
23 24 23 23 23 23 23 22 22 22 22 22 23 23 24 24 24 24 23 22 22 23 24 24 23 23 23 23 23 24 24 24 25 25 25 25 25 26 27 27 26 26 26
23 23 24 24 24 24 24 23 23 22 22 23 24 24 24 24 24 24 23 23 23 23 23 24 24 24 24 24 25 25 26 26 26 26 26 27 26 27 27 27 27 27 27
24 24 25 25 25 25 25 24 24 24 23 23 24 24 25 25 24 24 24 24 24 24 24 25 25 25 25 25 26 26 27 27 27 27 28 28 28 27 28 28 28 28 29
25 25 25 25 25 25 25 25 24 24 24 24 25 25 26 26 26 26 26 26 25 25 26 26 26 27 27 27 27 27 28 28 28 28 29 29 29 28 29 29 29 29 29
25 25 25 25 25 25 25 25 25 25 25 25 26 26 26 26 26 26 26 27 27 27 27 27 27 27 27 27 27 27 28 28 28 28 29 29 29 29 29 30 31 31 31
26 25 25 25 25 25 25 26 25 25 26 26 26 27 27 27 26 26 26 27 27 28 28 28 28 27 27 27 28 28 28 29 29 29 29 30 30 30 31 31 31 32 32
25 25 25 25 25 25 25 26 26 26 26 26 26 26 26 26 26 27 27 28 28 28 28 28 28 28 28 28 29 29 29 30 30 31 31 32 32 31 31 32 32 32 33
25 25 25 25 25 25 25 25 25 25 25 26 26 25 25 25 26 26 27 27 28 29 28 28 28 28 28 28 29 30 30 30 30 31 31 32 32 32 32 32 32 32 33
25 24 24 24 24 24 24 25 25 25 25 25 25 25 25 25 26 26 27 27 28 28 28 28 28 29 29 29 29 30 30 31 31 32 31 31 31 32 32 32 32 32 32

GEFSMW_500_meanwind_324.txt.gz
Wind_Speed
12 12 12 12 12 12 13 14 14 14 14 14 14 14 15 15 15 15 15 15 15 16 16 16 16 16 16 16 16 17 17 17 17 17 17 16 17 16 16 16 16 16 16
12 12 13 13 13 13 13 14 14 14 14 14 14 14 15 14 15 16 15 16 16 16 16 16 16 16 16 16 16 16 17 18 18 18 18 18 18 18 18 17 17 17 16
12 12 12 13 13 13 13 14 14 14 14 14 15 15 15 15 16 16 16 16 16 16 17 17 17 17 17 17 17 17 17 17 18 18 19 19 19 19 19 18 18 18 17
13 13 12 13 13 13 14 14 14 14 14 15 15 15 16 16 16 17 16 17 17 17 18 18 18 18 18 18 18 19 19 19 19 20 20 20 20 19 19 19 19 19 18
13 13 13 13 13 13 14 14 14 14 15 15 16 16 16 16 17 17 18 18 19 19 19 19 19 19 19 19 20 20 20 20 21 21 21 21 20 20 20 20 20 20 19
13 13 13 14 14 14 14 14 14 15 15 16 16 17 16 17 17 17 18 19 19 20 20 20 20 20 20 20 21 21 21 21 21 21 21 21 21 21 20 20 21 21 21
13 13 14 15 14 13 13 14 14 15 15 15 16 16 16 17 17 18 18 19 20 20 20 21 20 20 21 21 21 21 21 21 22 22 21 21 21 21 21 21 21 21 21
13 13 13 13 13 13 13 14 15 15 15 15 15 16 17 17 18 18 19 20 20 20 21 21 20 20 20 21 21 22 22 22 22 22 21 22 21 21 21 21 21 21 21
13 13 13 14 14 14 14 15 16 17 16 16 16 17 18 19 19 20 19 19 20 20 21 21 21 21 21 21 21 21 21 21 21 22 22 21 21 21 22 22 22 22 22
14 14 14 15 16 15 16 17 17 18 18 18 18 18 19 20 20 21 20 20 20 20 21 21 21 21 21 21 21 21 21 20 21 22 22 22 22 21 22 22 22 22 22
14 15 15 16 17 16 17 17 17 18 18 18 18 19 20 21 21 22 22 21 21 20 20 21 21 22 22 21 21 21 21 20 21 21 22 22 22 22 22 22 22 22 22
15 15 16 16 17 17 18 18 18 18 18 19 19 20 21 21 22 23 23 22 21 21 21 21 22 22 22 22 21 21 21 21 21 22 22 23 23 23 23 23 23 23 23
16 17 17 18 18 18 18 18 18 19 19 20 21 21 22 23 23 23 23 22 22 23 22 22 22 23 22 23 23 23 22 22 22 22 23 23 23 23 24 24 24 24 24
18 19 19 20 20 20 20 20 19 20 21 21 22 22 23 23 23 24 23 23 24 23 24 24 24 24 24 24 24 24 24 24 23 23 23 23 23 24 24 24 24 24 25
20 21 21 22 22 21 22 22 21 21 22 23 23 24 24 24 24 25 25 25 24 24 24 25 25 25 25 25 25 26 25 25 24 23 24 24 24 24 24 25 25 24 25
22 22 22 22 22 23 23 24 23 24 24 24 24 25 25 25 25 25 25 25 25 24 25 25 25 26 26 26 26 26 26 25 25 24 24 25 26 26 26 26 25 25 26
23 23 23 24 25 25 26 26 26 26 26 26 26 26 26 26 26 25 26 26 26 25 25 26 26 26 26 26 26 26 26 25 25 25 25 26 27 27 27 27 27 26 26
25 25 25 25 26 27 27 27 27 27 27 27 27 26 26 26 27 27 26 26 27 27 26 26 25 25 26 26 26 26 26 26 26 26 26 26 27 28 29 29 29 28 28
25 25 26 27 27 27 27 28 27 27 27 27 27 26 26 26 26 26 25 26 27 27 27 26 26 25 26 26 25 26 26 26 27 27 27 27 27 28 30 30 30 29 30
27 27 26 27 27 27 27 28 28 28 28 27 27 27 26 26 26 26 26 27 27 28 27 26 25 26 26 26 26 26 26 27 27 28 28 28 28 28 29 30 30 31 30
27 27 27 27 27 27 27 27 28 28 28 27 27 27 26 26 26 26 26 26 27 27 26 25 25 25 25 26 26 26 27 28 29 29 30 30 30 29 29 30 31 31 31
26 26 27 26 26 26 26 26 26 27 27 26 27 26 26 26 26 27 26 26 26 26 25 25 25 26 26 27 27 27 28 29 29 29 30 31 31 31 30 30 30 31 31
25 25 25 25 25 25 25 24 25 25 26 26 26 26 26 26 27 27 26 26 27 27 26 26 26 26 26 27 27 28 29 29 29 29 29 30 30 31 31 31 31 31 31
25 25 25 25 24 25 24 25 25 25 25 25 26 26 27 27 27 27 26 26 27 27 27 27 27 26 27 27 27 28 28 28 29 29 30 30 30 30 31 32 32 32 31
25 25 25 25 24 23 23 24 24 24 24 25 25 26 26 26 26 27 27 27 27 27 27 27 26 26 26 26 27 26 26 27 27 28 28 29 29 30 30 31 32 32 32
25 24 24 24 23 23 23 23 23 23 24 24 25 25 26 26 26 26 26 26 27 27 26 26 26 26 26 26 26 25 25 25 26 27 27 28 28 29 29 30 31 32 32

GEFSMW_500_meanwind_330.txt.gz
Wind_Speed
12 12 12 12 13 13 13 13 14 14 15 15 15 15 15 15 15 14 15 15 15 15 15 15 15 15 15 15 14 14 15 16 17 17 17 17 17 17 17 17 18 18 19
12 13 13 13 13 13 13 13 14 14 15 15 15 15 15 16 15 15 15 15 16 16 16 16 16 16 16 16 15 15 16 16 17 18 18 18 19 18 18 18 18 19 19
13 13 13 13 13 13 13 13 14 14 14 14 15 15 15 16 16 16 16 16 16 17 17 17 17 17 17 17 17 17 17 17 18 18 19 19 20 20 20 19 20 19 19
13 13 13 13 13 13 13 13 14 13 13 14 14 15 15 16 16 16 16 16 17 17 17 18 18 17 17 17 18 18 18 19 19 19 19 19 20 20 21 21 21 21 21
13 13 13 13 13 13 13 14 14 14 13 13 14 14 15 15 15 16 16 16 16 17 17 18 18 18 18 18 19 19 19 19 19 19 20 20 20 20 20 21 21 21 22
13 13 13 13 13 13 13 13 13 14 14 14 15 15 15 15 15 16 16 17 17 17 18 18 18 18 18 18 19 20 20 21 21 21 20 20 21 21 20 21 21 21 21
13 13 13 13 14 14 13 14 15 15 15 15 15 16 16 16 17 17 18 18 18 18 18 18 19 19 19 19 20 20 21 22 22 22 21 21 21 22 22 21 21 22 22
14 14 14 14 15 14 14 15 15 15 15 16 16 16 17 17 18 18 18 19 19 19 19 19 19 19 19 20 20 21 21 22 22 23 22 22 22 22 22 22 22 21 21
15 14 15 15 15 15 15 15 16 16 17 17 18 18 18 18 19 19 20 20 20 20 21 21 20 20 20 20 20 21 22 22 23 23 23 23 22 23 23 23 23 22 22
15 16 16 15 15 15 16 16 17 17 18 18 19 19 20 20 20 20 20 21 21 21 21 22 22 22 22 22 22 22 23 23 23 23 23 23 23 23 23 23 24 24 23
16 16 17 16 16 16 16 17 18 19 19 19 19 20 20 20 20 21 22 22 21 21 22 22 22 23 23 23 23 24 24 24 24 24 24 24 23 24 24 24 24 24 24
17 17 17 17 17 18 18 19 20 20 19 20 21 21 21 21 22 22 23 23 23 23 24 24 24 25 25 25 25 26 26 25 26 26 25 25 25 25 24 25 24 24 24
18 18 18 18 19 19 20 21 22 22 22 21 22 22 23 23 24 25 25 25 26 26 26 26 26 27 27 27 26 26 27 27 27 26 26 26 25 25 25 25 25 25 25
19 19 19 20 20 21 22 22 23 23 24 24 24 25 25 26 26 27 27 27 28 28 28 28 28 28 29 28 27 27 28 28 28 27 27 27 26 26 26 26 27 26 26
21 21 21 21 22 23 24 24 25 26 26 27 27 27 27 28 28 28 29 29 29 29 29 29 29 29 29 28 28 28 28 28 28 28 28 27 27 27 27 28 28 28 28
22 22 22 23 24 25 25 26 26 27 27 28 28 29 28 29 29 29 29 29 29 29 28 28 28 28 28 28 28 27 27 27 28 28 28 28 28 28 29 29 30 29 29
22 22 23 24 25 26 26 26 26 27 28 28 29 29 29 28 28 29 28 28 28 28 27 27 27 27 27 26 26 26 27 27 28 28 28 28 28 29 29 29 30 30 30
22 23 24 25 26 26 26 27 27 27 27 28 28 28 28 28 28 28 28 27 26 26 26 26 26 26 26 26 26 26 27 27 28 28 29 29 29 29 29 30 30 30 31
23 23 24 25 25 26 26 26 26 27 27 27 28 27 28 27 27 26 26 26 25 24 25 25 25 25 25 25 25 26 26 27 28 28 29 29 29 29 30 31 31 30 31
23 24 24 24 25 25 26 26 26 26 26 26 26 26 26 26 27 25 25 24 24 23 24 24 24 24 24 24 25 26 27 28 28 28 28 28 29 29 30 30 31 31 31
23 24 24 24 24 25 25 25 25 25 25 25 25 25 25 25 25 25 24 24 24 24 23 24 24 24 23 24 25 27 27 26 26 26 26 27 28 29 29 29 30 30 30
23 23 24 24 24 25 25 25 25 24 24 24 24 24 24 24 23 24 24 25 24 24 24 24 24 24 24 25 26 26 26 25 25 25 25 26 27 28 29 30 30 30 30
22 22 23 24 24 24 24 24 23 23 23 23 23 23 23 23 24 24 25 25 25 24 24 24 24 25 25 26 26 26 26 25 24 24 25 25 26 27 28 28 28 29 29
23 22 22 22 23 24 23 23 23 22 22 22 23 23 23 24 24 23 23 24 24 24 24 24 25 25 25 26 26 25 24 24 24 23 24 24 24 25 25 26 27 27 28
23 22 22 22 22 23 23 22 22 22 22 23 23 23 23 23 23 23 23 23 23 24 24 25 25 25 25 25 25 25 24 23 23 23 23 23 24 24 24 24 25 26 26
23 22 22 22 22 22 22 23 23 23 23 23 23 23 23 23 23 23 23 24 24 24 25 25 25 25 25 25 24 24 23 23 23 23 23 23 23 23 24 24 24 25 26